Time,TemperatureF,DewpointF,PressureIn,WindDirection,WindDirectionDegrees,WindSpeedMPH,WindSpeedGustMPH,Humidity,HourlyPrecipIn,Conditions,Clouds,dailyrainin,SoftwareType,DateUTC
2013-04-13 00:03:00,35.0,33.0,29.74,NW,306,0.0,1.0,92,0.00,,,0.23,,2013-04-13 04:03:00,
2013-04-13 00:12:00,35.0,33.0,29.74,NW,306,0.0,1.0,92,0.00,,,0.23,,2013-04-13 04:12:00,
2013-04-13 00:23:00,35.0,33.0,29.74,NW,306,0.0,3.0,93,0.00,,,0.23,,2013-04-13 04:23:00,
2013-04-13 00:33:00,35.0,33.0,29.74,NW,305,0.0,2.0,93,0.00,,,0.20,,2013-04-13 04:33:00,
2013-04-13 00:42:00,35.0,33.0,29.74,NW,305,0.0,2.0,93,0.00,,,0.20,,2013-04-13 04:42:00,
2013-04-13 00:53:00,35.0,33.0,29.75,NW,305,0.0,3.0,93,0.00,,,0.20,,2013-04-13 04:53:00,
2013-04-13 01:02:00,35.0,33.0,29.75,NW,305,0.0,2.0,93,0.00,,,0.20,,2013-04-13 05:02:00,
2013-04-13 01:12:00,35.0,33.0,29.75,NW,305,0.0,2.0,93,0.00,,,0.20,,2013-04-13 05:12:00,
2013-04-13 01:22:00,35.0,33.0,29.75,West,275,1.0,3.0,93,0.00,,,0.20,,2013-04-13 05:22:00,
2013-04-13 01:32:00,35.0,33.0,29.76,West,276,0.0,4.0,93,0.00,,,0.18,,2013-04-13 05:32:00,
2013-04-13 01:43:00,35.0,33.0,29.76,West,276,0.0,4.0,93,0.00,,,0.18,,2013-04-13 05:43:00,
2013-04-13 01:53:00,35.0,33.0,29.76,NW,307,0.0,0.0,92,0.00,,,0.18,,2013-04-13 05:53:00,
2013-04-13 02:02:00,35.0,33.0,29.75,NW,307,0.0,3.0,92,0.00,,,0.18,,2013-04-13 06:02:00,
2013-04-13 02:12:00,35.0,33.0,29.75,NW,307,0.0,3.0,92,0.00,,,0.18,,2013-04-13 06:12:00,
2013-04-13 02:24:00,34.0,32.0,29.76,NW,307,0.0,2.0,92,0.00,,,0.18,,2013-04-13 06:24:00,
2013-04-13 02:35:00,34.0,32.0,29.76,NW,304,1.0,3.0,92,0.00,,,0.14,,2013-04-13 06:35:00,
2013-04-13 02:48:00,34.0,32.0,29.76,NW,304,1.0,3.0,92,0.00,,,0.14,,2013-04-13 06:48:00,
2013-04-13 03:05:00,34.0,32.0,29.76,NW,313,0.0,0.0,93,0.01,,,0.15,,2013-04-13 07:05:00,
2013-04-13 03:15:00,34.0,32.0,29.76,NW,313,0.0,0.0,93,0.01,,,0.15,,2013-04-13 07:15:00,
2013-04-13 03:24:00,34.0,32.0,29.76,NW,313,0.0,3.0,93,0.01,,,0.15,,2013-04-13 07:24:00,
2013-04-13 03:35:00,34.0,32.0,29.76,NW,313,0.0,1.0,93,0.01,,,0.09,,2013-04-13 07:35:00,
2013-04-13 03:45:00,34.0,32.0,29.76,NW,313,0.0,1.0,93,0.01,,,0.09,,2013-04-13 07:45:00,
2013-04-13 03:54:00,34.0,32.0,29.76,NW,313,0.0,1.0,93,0.02,,,0.10,,2013-04-13 07:54:00,
2013-04-13 04:06:00,33.0,31.0,29.76,NW,313,0.0,2.0,94,0.02,,,0.10,,2013-04-13 08:06:00,
2013-04-13 04:25:00,33.0,31.0,29.76,NW,313,0.0,2.0,94,0.01,,,0.10,,2013-04-13 08:25:00,
2013-04-13 04:35:00,33.0,32.0,29.76,WNW,294,1.0,3.0,95,0.02,,,0.07,,2013-04-13 08:35:00,
2013-04-13 04:45:00,33.0,32.0,29.76,WNW,294,1.0,3.0,95,0.02,,,0.07,,2013-04-13 08:45:00,
2013-04-13 04:55:00,33.0,32.0,29.76,WNW,290,2.0,3.0,95,0.01,,,0.07,,2013-04-13 08:55:00,
2013-04-13 05:05:00,33.0,32.0,29.76,WNW,300,0.0,3.0,95,0.02,,,0.08,,2013-04-13 09:05:00,
2013-04-13 05:15:00,33.0,32.0,29.76,WNW,300,0.0,3.0,95,0.02,,,0.08,,2013-04-13 09:15:00,
2013-04-13 05:24:00,33.0,32.0,29.76,NW,306,0.0,4.0,95,0.02,,,0.08,,2013-04-13 09:24:00,
2013-04-13 05:37:00,33.0,32.0,29.76,West,272,0.0,4.0,95,0.02,,,0.09,,2013-04-13 09:37:00,
2013-04-13 05:51:00,33.0,32.0,29.76,West,272,0.0,4.0,95,0.02,,,0.09,,2013-04-13 09:51:00,
2013-04-13 06:05:00,34.0,33.0,29.75,NW,305,0.0,3.0,95,0.01,,,0.09,,2013-04-13 10:05:00,
2013-04-13 06:15:00,34.0,33.0,29.74,WSW,254,1.0,3.0,95,0.01,,,0.09,,2013-04-13 10:15:00,
2013-04-13 06:24:00,34.0,33.0,29.74,WSW,254,1.0,3.0,95,0.01,,,0.09,,2013-04-13 10:24:00,
2013-04-13 06:37:00,34.0,33.0,29.74,WSW,255,0.0,2.0,95,0.00,,,0.09,,2013-04-13 10:37:00,
2013-04-13 06:46:00,34.0,33.0,29.74,WSW,255,0.0,2.0,95,0.00,,,0.09,,2013-04-13 10:46:00,
2013-04-13 06:55:00,34.0,33.0,29.74,WSW,255,0.0,1.0,95,0.01,,,0.10,,2013-04-13 10:55:00,
2013-04-13 07:06:00,34.0,32.0,29.75,WSW,255,0.0,2.0,94,0.01,,,0.10,,2013-04-13 11:06:00,
2013-04-13 07:14:00,34.0,32.0,29.75,WSW,255,0.0,2.0,94,0.01,,,0.10,,2013-04-13 11:14:00,
2013-04-13 07:24:00,33.0,31.0,29.75,NW,316,2.0,5.0,94,0.01,,,0.10,,2013-04-13 11:24:00,
2013-04-13 07:34:00,34.0,32.0,29.75,WNW,291,0.0,4.0,94,0.01,,,0.10,,2013-04-13 11:34:00,
2013-04-13 07:45:00,34.0,32.0,29.75,WNW,291,0.0,4.0,94,0.01,,,0.10,,2013-04-13 11:45:00,
2013-04-13 07:54:00,34.0,32.0,29.75,West,273,1.0,4.0,93,0.00,,,0.10,,2013-04-13 11:54:00,
2013-04-13 08:08:00,34.0,32.0,29.76,WNW,284,1.0,7.0,93,0.00,,,0.10,,2013-04-13 12:08:00,
2013-04-13 08:15:00,34.0,32.0,29.76,WNW,284,1.0,7.0,93,0.00,,,0.10,,2013-04-13 12:15:00,
2013-04-13 08:25:00,34.0,32.0,29.76,West,278,1.0,4.0,93,0.00,,,0.10,,2013-04-13 12:25:00,
2013-04-13 08:35:00,34.0,32.0,29.76,West,275,3.0,6.0,93,0.00,,,0.10,,2013-04-13 12:35:00,
2013-04-13 08:47:00,34.0,32.0,29.76,West,275,3.0,6.0,93,0.00,,,0.10,,2013-04-13 12:47:00,
2013-04-13 08:55:00,34.0,32.0,29.76,WSW,258,0.0,3.0,93,0.00,,,0.10,,2013-04-13 12:55:00,
2013-04-13 09:15:00,33.0,31.0,29.77,NW,315,1.0,6.0,93,0.00,,,0.10,,2013-04-13 13:15:00,
2013-04-13 09:30:00,33.0,31.0,29.77,West,278,2.0,7.0,94,0.00,,,0.10,,2013-04-13 13:30:00,
2013-04-13 09:48:00,33.0,31.0,29.76,WNW,292,1.0,7.0,94,0.00,,,0.10,,2013-04-13 13:48:00,
2013-04-13 09:57:00,33.0,31.0,29.77,NW,326,1.0,5.0,94,0.01,,,0.11,,2013-04-13 13:57:00,
2013-04-13 10:05:00,33.0,31.0,29.76,NNW,344,3.0,7.0,94,0.02,,,0.12,,2013-04-13 14:05:00,
2013-04-13 10:15:00,33.0,31.0,29.76,NNW,344,3.0,7.0,94,0.02,,,0.12,,2013-04-13 14:15:00,
2013-04-13 10:24:00,34.0,32.0,29.77,WNW,298,1.0,8.0,94,0.02,,,0.12,,2013-04-13 14:24:00,
2013-04-13 10:39:00,34.0,32.0,29.77,West,265,3.0,12.0,94,0.03,,,0.13,,2013-04-13 14:39:00,
2013-04-13 10:46:00,34.0,32.0,29.77,West,265,3.0,12.0,94,0.03,,,0.13,,2013-04-13 14:46:00,
2013-04-13 11:00:00,34.0,32.0,29.77,NNW,336,1.0,9.0,94,0.02,,,0.13,,2013-04-13 15:00:00,
2013-04-13 11:05:00,34.0,32.0,29.77,NW,326,2.0,6.0,93,0.01,,,0.13,,2013-04-13 15:05:00,
2013-04-13 11:14:00,34.0,32.0,29.77,NW,326,2.0,6.0,93,0.01,,,0.13,,2013-04-13 15:14:00,
2013-04-13 11:29:00,34.0,32.0,29.78,WNW,298,2.0,9.0,93,0.02,,,0.14,,2013-04-13 15:29:00,
2013-04-13 11:36:00,35.0,33.0,29.77,WNW,292,2.0,12.0,93,0.01,,,0.14,,2013-04-13 15:36:00,
2013-04-13 11:44:00,35.0,33.0,29.77,WNW,292,2.0,12.0,93,0.01,,,0.14,,2013-04-13 15:44:00,
2013-04-13 11:58:00,35.0,33.0,29.78,WNW,284,3.0,11.0,91,0.01,,,0.14,,2013-04-13 15:58:00,
2013-04-13 12:07:00,35.0,33.0,29.78,WNW,302,4.0,8.0,91,0.01,,,0.14,,2013-04-13 16:07:00,
2013-04-13 12:15:00,35.0,33.0,29.78,WNW,302,4.0,8.0,91,0.01,,,0.14,,2013-04-13 16:15:00,
2013-04-13 12:24:00,35.0,33.0,29.79,NE,49,2.0,9.0,91,0.00,,,0.14,,2013-04-13 16:24:00,
2013-04-13 12:36:00,35.0,33.0,29.79,WNW,290,5.0,14.0,91,0.00,,,0.13,,2013-04-13 16:36:00,
2013-04-13 12:46:00,35.0,33.0,29.79,WNW,290,5.0,14.0,91,0.00,,,0.13,,2013-04-13 16:46:00,
2013-04-13 13:08:00,34.0,31.0,29.80,NNW,331,1.0,10.0,87,0.00,,,0.13,,2013-04-13 17:08:00,
2013-04-13 13:21:00,34.0,31.0,29.80,NNW,331,1.0,10.0,87,0.00,,,0.13,,2013-04-13 17:21:00,
2013-04-13 13:38:00,35.0,32.0,29.81,NW,313,3.0,9.0,90,0.00,,,0.13,,2013-04-13 17:38:00,
2013-04-13 13:44:00,35.0,32.0,29.81,NW,313,3.0,9.0,90,0.00,,,0.13,,2013-04-13 17:44:00,
2013-04-13 14:04:00,36.0,32.0,29.81,NNW,340,5.0,9.0,84,0.00,,,0.13,,2013-04-13 18:04:00,
2013-04-13 14:15:00,36.0,30.0,29.82,West,273,5.0,11.0,79,0.00,,,0.13,,2013-04-13 18:15:00,
2013-04-13 14:25:00,38.0,30.0,29.82,NNE,17,3.0,18.0,74,0.00,,,0.13,,2013-04-13 18:25:00,
2013-04-13 14:33:00,37.0,28.0,29.83,NNW,346,5.0,16.0,71,0.00,,,0.12,,2013-04-13 18:33:00,
2013-04-13 14:42:00,37.0,28.0,29.83,NNW,346,5.0,16.0,71,0.00,,,0.12,,2013-04-13 18:42:00,
2013-04-13 14:53:00,36.0,28.0,29.84,NE,44,7.0,14.0,73,0.00,,,0.12,,2013-04-13 18:53:00,
2013-04-13 15:03:00,36.0,27.0,29.84,WNW,289,3.0,18.0,70,0.00,,,0.12,,2013-04-13 19:03:00,
2013-04-13 15:12:00,36.0,27.0,29.84,WNW,289,3.0,18.0,70,0.00,,,0.12,,2013-04-13 19:12:00,
2013-04-13 15:22:00,36.0,26.0,29.85,NW,324,5.0,15.0,68,0.00,,,0.12,,2013-04-13 19:22:00,
2013-04-13 15:32:00,37.0,27.0,29.85,WNW,302,5.0,9.0,66,0.00,,,0.12,,2013-04-13 19:32:00,
2013-04-13 15:42:00,37.0,27.0,29.85,WNW,302,5.0,9.0,66,0.00,,,0.12,,2013-04-13 19:42:00,
2013-04-13 15:53:00,37.0,26.0,29.85,NW,325,4.0,12.0,63,0.00,,,0.12,,2013-04-13 19:53:00,
2013-04-13 16:02:00,37.0,25.0,29.85,West,277,7.0,13.0,61,0.00,,,0.12,,2013-04-13 20:02:00,
2013-04-13 16:12:00,37.0,25.0,29.85,West,277,7.0,13.0,61,0.00,,,0.12,,2013-04-13 20:12:00,
2013-04-13 16:22:00,37.0,25.0,29.85,NW,307,3.0,17.0,62,0.00,,,0.12,,2013-04-13 20:22:00,
2013-04-13 16:32:00,38.0,27.0,29.85,West,281,5.0,13.0,63,0.00,,,0.10,,2013-04-13 20:32:00,
2013-04-13 16:42:00,38.0,27.0,29.85,West,281,5.0,13.0,63,0.00,,,0.10,,2013-04-13 20:42:00,
2013-04-13 16:52:00,38.0,26.0,29.86,NNW,331,5.0,9.0,62,0.00,,,0.10,,2013-04-13 20:52:00,
2013-04-13 17:02:00,38.0,27.0,29.87,WNW,298,4.0,8.0,65,0.00,,,0.10,,2013-04-13 21:02:00,
2013-04-13 17:12:00,38.0,27.0,29.87,WNW,298,4.0,8.0,65,0.00,,,0.10,,2013-04-13 21:12:00,
2013-04-13 17:22:00,38.0,27.0,29.87,North,360,5.0,12.0,63,0.00,,,0.10,,2013-04-13 21:22:00,
2013-04-13 17:33:00,37.0,26.0,29.87,NNW,340,5.0,13.0,65,0.00,,,0.10,,2013-04-13 21:33:00,
2013-04-13 17:43:00,37.0,26.0,29.87,NNW,340,5.0,13.0,65,0.00,,,0.10,,2013-04-13 21:43:00,
2013-04-13 17:53:00,37.0,26.0,29.87,NNW,339,4.0,13.0,64,0.00,,,0.10,,2013-04-13 21:53:00,
2013-04-13 18:03:00,38.0,27.0,29.88,NNW,329,1.0,13.0,65,0.00,,,0.10,,2013-04-13 22:03:00,
2013-04-13 18:13:00,38.0,27.0,29.88,NNW,329,1.0,13.0,65,0.00,,,0.10,,2013-04-13 22:13:00,
2013-04-13 18:22:00,37.0,26.0,29.88,ENE,57,4.0,14.0,64,0.00,,,0.10,,2013-04-13 22:22:00,
2013-04-13 18:33:00,37.0,26.0,29.89,NNW,327,5.0,12.0,64,0.00,,,0.10,,2013-04-13 22:33:00,
2013-04-13 18:42:00,37.0,26.0,29.89,NNW,327,5.0,12.0,64,0.00,,,0.10,,2013-04-13 22:42:00,
2013-04-13 18:53:00,37.0,27.0,29.89,NNW,337,3.0,10.0,66,0.00,,,0.10,,2013-04-13 22:53:00,
2013-04-13 19:02:00,37.0,27.0,29.89,NNE,22,4.0,15.0,66,0.00,,,0.10,,2013-04-13 23:02:00,
2013-04-13 19:12:00,37.0,27.0,29.89,NNE,22,4.0,15.0,66,0.00,,,0.10,,2013-04-13 23:12:00,
2013-04-13 19:22:00,37.0,27.0,29.90,NNW,348,4.0,8.0,67,0.00,,,0.10,,2013-04-13 23:22:00,
2013-04-13 19:33:00,37.0,27.0,29.90,NW,315,0.0,6.0,68,0.00,,,0.10,,2013-04-13 23:33:00,
2013-04-13 19:42:00,37.0,27.0,29.90,NW,315,0.0,6.0,68,0.00,,,0.10,,2013-04-13 23:42:00,
2013-04-13 19:53:00,37.0,28.0,29.90,NW,308,1.0,7.0,69,0.00,,,0.10,,2013-04-13 23:53:00,
2013-04-13 20:03:00,37.0,28.0,29.90,WNW,300,1.0,6.0,70,0.00,,,0.10,,2013-04-14 00:03:00,
2013-04-13 20:12:00,37.0,28.0,29.90,WNW,300,1.0,6.0,70,0.00,,,0.10,,2013-04-14 00:12:00,
2013-04-13 20:22:00,37.0,28.0,29.90,North,350,0.0,3.0,71,0.00,,,0.10,,2013-04-14 00:22:00,
2013-04-13 20:32:00,36.0,28.0,29.90,North,350,1.0,4.0,71,0.00,,,0.10,,2013-04-14 00:32:00,
2013-04-13 20:42:00,36.0,28.0,29.90,North,350,1.0,4.0,71,0.00,,,0.10,,2013-04-14 00:42:00,
2013-04-13 20:52:00,36.0,28.0,29.91,NW,306,2.0,5.0,71,0.00,,,0.10,,2013-04-14 00:52:00,
2013-04-13 21:02:00,36.0,28.0,29.92,NW,309,0.0,5.0,72,0.00,,,0.10,,2013-04-14 01:02:00,
2013-04-13 21:12:00,36.0,28.0,29.92,NW,309,0.0,5.0,72,0.00,,,0.10,,2013-04-14 01:12:00,
2013-04-13 21:22:00,36.0,28.0,29.92,NNW,329,0.0,3.0,73,0.00,,,0.10,,2013-04-14 01:22:00,
2013-04-13 21:32:00,36.0,29.0,29.93,NNW,329,0.0,2.0,75,0.00,,,0.10,,2013-04-14 01:32:00,
2013-04-13 21:42:00,36.0,29.0,29.93,NNW,329,0.0,2.0,75,0.00,,,0.10,,2013-04-14 01:42:00,
2013-04-13 21:53:00,35.0,28.0,29.93,NW,326,0.0,7.0,75,0.00,,,0.10,,2013-04-14 01:53:00,
2013-04-13 22:02:00,36.0,29.0,29.94,NW,326,0.0,2.0,76,0.00,,,0.10,,2013-04-14 02:02:00,
2013-04-13 22:12:00,36.0,29.0,29.94,NW,326,0.0,2.0,76,0.00,,,0.10,,2013-04-14 02:12:00,
2013-04-13 22:22:00,35.0,29.0,29.94,NW,326,0.0,1.0,78,0.00,,,0.10,,2013-04-14 02:22:00,
2013-04-13 22:32:00,35.0,29.0,29.95,NW,326,0.0,0.0,79,0.00,,,0.10,,2013-04-14 02:32:00,
2013-04-13 22:42:00,35.0,29.0,29.95,NW,326,0.0,0.0,79,0.00,,,0.10,,2013-04-14 02:42:00,
2013-04-13 22:53:00,35.0,30.0,29.95,NW,326,0.0,0.0,81,0.00,,,0.10,,2013-04-14 02:53:00,
2013-04-13 23:03:00,35.0,30.0,29.95,NW,326,0.0,0.0,82,0.00,,,0.10,,2013-04-14 03:03:00,
2013-04-13 23:12:00,35.0,30.0,29.95,NW,326,0.0,0.0,82,0.00,,,0.10,,2013-04-14 03:12:00,
2013-04-13 23:22:00,35.0,30.0,29.95,NW,326,0.0,0.0,83,0.00,,,0.10,,2013-04-14 03:22:00,
2013-04-13 23:33:00,34.0,30.0,29.95,NW,326,0.0,1.0,85,0.00,,,0.10,,2013-04-14 03:33:00,
2013-04-13 23:42:00,34.0,30.0,29.95,NW,326,0.0,1.0,85,0.00,,,0.10,,2013-04-14 03:42:00,
2013-04-13 23:53:00,34.0,30.0,29.95,NW,326,0.0,0.0,85,0.00,,,0.10,,2013-04-14 03:53:00,